Location: Newark
(43.6583°N, 1.6617°E)
Time: 22:13:52
(UTC+00:00)

Vanguard 2 Rocket - Pass Details

Date: 23 August 2019
Orbit: 554 x 3327 km, 32.9° (Epoch: 15 September)

Event Time Altitude Azimuth Distance (km) Brightness Sun altitude
Exits shadow 03:03:05 26° 217° (SW) 3,545 9.3 -20.3°
Maximum altitude 03:11:04 49° 159° (SSE) 3,187 9.4 -19.2°
Drops below altitude 10° 03:29:00 10° 93° (E) 6,238 11.9 -16.6°
Sets 03:34:17 0° 89° (E) 7,318 12.5 -15.8°
